Terminal Aerodrome Forecast
Issued by NWS

Home | Current Version | Previous Version | Graphics & Text | Print | Product List | Glossary On
Versions: 1 2 3 4 5 6 7 8 9 10 11 12 13 14 15 16 17 18
153
FTUS43 KGRB 222143 AAA
TAFMTW
TAF AMD
KMTW 222143Z 2222/2318 22008KT 5SM SHRA BKN035
      TEMPO 2222/2224 2SM TSRA BKN016CB
     FM230000 02009G14KT 3SM TSRA BKN024CB
     FM230300 34006KT 5SM -SHRA OVC030
     FM230800 29006KT P6SM BKN100
     FM231600 26012G22KT P6SM SCT040=

USA.gov is the U.S. government's official web portal to all federal, state and local government web resources and services.